| time (UTC) | temp F | wind direction | speed MPH | gust MPH | rain 1hr in | rain 24hr in | rain mn in | humidity % | barometer mb |
| 20260510233059 | 60 | 132 | 0.0 | 0.0 | 0.00 | 0.08 | 0.00 | 88 | 1015.1 |
| 20260510231556 | 62 | 132 | 0.0 | 0.0 | 0.00 | 0.08 | 0.00 | 85 | 1015.0 |
| 20260510230056 | 63 | 132 | 0.0 | 0.0 | 0.00 | 0.46 | 0.00 | 84 | 1014.7 |
| 20260510224555 | 63 | 132 | 0.0 | 0.0 | 0.00 | 0.46 | 0.00 | 81 | 1014.6 |
| 20260510223038 | 63 | 132 | 0.0 | 0.0 | 0.00 | 0.46 | 0.00 | 82 | 1014.6 |
| 20260510221522 | 63 | 132 | 0.0 | 1.0 | 0.00 | 0.46 | 0.00 | 81 | 1014.7 |
| 20260510220020 | 63 | 11 | 0.0 | 2.0 | 0.00 | 0.52 | 0.00 | 82 | 1014.8 |
| 20260510214502 | 63 | 255 | 0.0 | 1.0 | 0.00 | 0.52 | 0.00 | 81 | 1014.4 |
| 20260510213001 | 63 | 274 | 0.0 | 2.0 | 0.00 | 0.52 | 0.00 | 82 | 1014.6 |
| 20260510211544 | 63 | 113 | 0.0 | 3.0 | 0.00 | 0.52 | 0.00 | 83 | 1014.1 |
| 20260510210043 | 63 | 238 | 0.0 | 5.0 | 0.00 | 0.56 | 0.00 | 81 | 1014.2 |
| 20260510204532 | 64 | 199 | 0.0 | 4.0 | 0.00 | 0.56 | 0.00 | 81 | 1013.9 |
| 20260510203036 | 64 | 97 | 0.0 | 4.0 | 0.00 | 0.56 | 0.00 | 81 | 1013.9 |
| 20260510201530 | 62 | 216 | 0.0 | 1.0 | 0.00 | 0.56 | 0.00 | 84 | 1014.0 |
| 20260510200030 | 62 | 280 | 0.0 | 5.0 | 0.00 | 0.62 | 0.00 | 83 | 1014.1 |
| 20260510194534 | 62 | 230 | 0.0 | 3.0 | 0.00 | 0.62 | 0.00 | 84 | 1014.1 |
| 20260510193128 | 62 | 270 | 0.0 | 3.0 | 0.00 | 0.62 | 0.00 | 83 | 1014.1 |
| 20260510191527 | 63 | 124 | 0.0 | 4.0 | 0.00 | 0.62 | 0.00 | 82 | 1014.5 |
| 20260510190029 | 64 | 127 | 0.0 | 5.0 | 0.00 | 0.65 | 0.00 | 82 | 1014.4 |
| 20260510184507 | 65 | 170 | 1.0 | 7.0 | 0.00 | 0.65 | 0.00 | 81 | 1014.5 |
| 20260510183007 | 65 | 136 | 1.0 | 6.0 | 0.00 | 0.65 | 0.00 | 81 | 1014.3 |
| 20260510181554 | 65 | 147 | 1.0 | 6.0 | 0.00 | 0.65 | 0.00 | 82 | 1014.6 |
| 20260510180045 | 63 | 165 | 0.0 | 7.0 | 0.00 | 0.65 | 0.00 | 84 | 1014.8 |
| 20260510174525 | 62 | 161 | 2.0 | 6.0 | 0.00 | 0.65 | 0.00 | 86 | 1014.8 |
| 20260510173023 | 61 | 84 | 1.0 | 6.0 | 0.00 | 0.65 | 0.00 | 85 | 1014.6 |
| 20260510171509 | 61 | 302 | 1.0 | 6.0 | 0.00 | 0.65 | 0.00 | 86 | 1014.6 |
| 20260510170005 | 61 | 124 | 0.0 | 4.0 | 0.00 | 0.65 | 0.00 | 86 | 1014.7 |
| 20260510164550 | 61 | 155 | 0.0 | 2.0 | 0.00 | 0.65 | 0.00 | 86 | 1014.7 |
| 20260510163047 | 60 | 141 | 1.0 | 5.0 | 0.00 | 0.65 | 0.00 | 85 | 1014.8 |
| 20260510161532 | 61 | 107 | 0.0 | 5.0 | 0.00 | 0.65 | 0.00 | 86 | 1014.9 |
| 20260510160034 | 60 | 82 | 1.0 | 7.0 | 0.00 | 0.65 | 0.00 | 85 | 1014.8 |
| 20260510154513 | 60 | 160 | 0.0 | 5.0 | 0.00 | 0.65 | 0.00 | 87 | 1014.9 |
| 20260510153009 | 59 | 242 | 0.0 | 6.0 | 0.00 | 0.65 | 0.00 | 88 | 1015.2 |
| 20260510151505 | 58 | 159 | 1.0 | 4.0 | 0.00 | 0.65 | 0.00 | 88 | 1015.1 |
| 20260510150002 | 56 | 294 | 0.0 | 4.0 | 0.00 | 0.65 | 0.00 | 92 | 1015.0 |
| 20260510144602 | 55 | 148 | 0.0 | 3.0 | 0.00 | 0.65 | 0.00 | 92 | 1014.8 |
| 20260510143058 | 54 | 126 | 0.0 | 3.0 | 0.00 | 0.65 | 0.00 | 92 | 1014.8 |
| 20260510141559 | 54 | 238 | 0.0 | 5.0 | 0.00 | 0.65 | 0.00 | 91 | 1014.7 |
| 20260510140058 | 55 | 163 | 0.0 | 4.0 | 0.00 | 0.65 | 0.00 | 91 | 1014.7 |
| 20260510134604 | 55 | 114 | 0.0 | 3.0 | 0.00 | 0.65 | 0.00 | 92 | 1014.7 |
| 20260510133037 | 55 | 135 | 0.0 | 1.0 | 0.00 | 0.65 | 0.00 | 93 | 1014.7 |
| 20260510131536 | 55 | 104 | 0.0 | 1.0 | 0.00 | 0.65 | 0.00 | 94 | 1014.6 |
| 20260510130017 | 54 | 4 | 0.0 | 0.0 | 0.00 | 0.65 | 0.00 | 94 | 1014.6 |
| 20260510124514 | 54 | 311 | 0.0 | 2.0 | 0.00 | 0.65 | 0.00 | 94 | 1014.5 |
| 20260510123059 | 53 | 217 | 0.0 | 1.0 | 0.00 | 0.65 | 0.00 | 95 | 1014.3 |
| 20260510121554 | 53 | 288 | 0.0 | 3.0 | 0.00 | 0.65 | 0.00 | 95 | 1014.4 |
| 20260510120034 | 53 | 270 | 0.0 | 2.0 | 0.00 | 0.65 | 0.00 | 95 | 1013.9 |
| 20260510114537 | 53 | 109 | 0.0 | 1.0 | 0.00 | 0.65 | 0.00 | 95 | 1013.6 |
| 20260510113014 | 52 | 37 | 0.0 | 0.0 | 0.00 | 0.65 | 0.00 | 96 | 1013.8 |
| 20260510111514 | 52 | 96 | 0.0 | 1.0 | 0.00 | 0.65 | 0.00 | 96 | 1013.9 |
| 20260510110054 | 51 | 96 | 0.0 | 4.0 | 0.00 | 0.65 | 0.00 | 96 | 1013.4 |
| 20260510104555 | 51 | 176 | 0.0 | 3.0 | 0.00 | 0.65 | 0.00 | 96 | 1013.5 |
| 20260510103038 | 50 | 82 | 0.0 | 0.0 | 0.00 | 0.65 | 0.00 | 95 | 1013.7 |
| 20260510101536 | 50 | 82 | 0.0 | 0.0 | 0.00 | 0.65 | 0.00 | 95 | 1013.7 |
| 20260510100016 | 51 | 82 | 0.0 | 0.0 | 0.00 | 0.65 | 0.00 | 95 | 1013.7 |
| 20260510094531 | 51 | 82 | 0.0 | 0.0 | 0.00 | 0.65 | 0.00 | 95 | 1013.9 |
| 20260510093056 | 52 | 82 | 0.0 | 1.0 | 0.00 | 0.65 | 0.00 | 95 | 1013.9 |
| 20260510091556 | 52 | 96 | 0.0 | 0.0 | 0.00 | 0.65 | 0.00 | 95 | 1014.0 |
| 20260510090039 | 52 | 96 | 0.0 | 0.0 | 0.00 | 0.66 | 0.00 | 95 | 1014.1 |
| 20260510084537 | 52 | 96 | 0.0 | 0.0 | 0.00 | 0.66 | 0.00 | 95 | 1014.1 |
| 20260510083023 | 51 | 96 | 0.0 | 0.0 | 0.00 | 0.66 | 0.00 | 95 | 1013.4 |
| 20260510081533 | 52 | 96 | 0.0 | 0.0 | 0.00 | 0.66 | 0.00 | 95 | 1013.1 |
| 20260510080020 | 52 | 104 | 0.0 | 0.0 | 0.00 | 0.66 | 0.00 | 95 | 1012.9 |
| 20260510074520 | 52 | 103 | 0.0 | 0.0 | 0.00 | 0.66 | 0.00 | 95 | 1013.0 |
| 20260510073019 | 52 | 103 | 0.0 | 0.0 | 0.00 | 0.66 | 0.00 | 95 | 1013.2 |
| 20260510071520 | 52 | 103 | 0.0 | 0.0 | 0.00 | 0.66 | 0.00 | 95 | 1013.2 |
| 20260510070021 | 52 | 103 | 0.0 | 0.0 | 0.00 | 0.66 | 0.00 | 95 | 1013.3 |
| 20260510064520 | 52 | 103 | 0.0 | 0.0 | 0.00 | 0.66 | 0.00 | 95 | 1013.1 |
| 20260510063105 | 52 | 104 | 0.0 | 0.0 | 0.00 | 0.66 | 0.00 | 95 | 1012.9 |
| 20260510061605 | 52 | 104 | 0.0 | 0.0 | 0.00 | 0.66 | 0.00 | 95 | 1012.7 |
| 20260510060038 | 52 | 104 | 0.0 | 1.0 | 0.00 | 0.66 | 0.00 | 95 | 1012.8 |
| 20260510054546 | 52 | 38 | 0.0 | 0.0 | 0.00 | 0.66 | 0.00 | 95 | 1012.9 |
| 20260510053020 | 52 | 38 | 0.0 | 0.0 | 0.00 | 0.66 | 0.00 | 95 | 1013.0 |
| 20260510051529 | 52 | 38 | 0.0 | 0.0 | 0.00 | 0.66 | 0.00 | 95 | 1013.0 |
| 20260510050007 | 52 | 38 | 0.0 | 0.0 | 0.00 | 0.66 | 0.00 | 95 | 1013.1 |
| 20260510044509 | 52 | 38 | 0.0 | 0.0 | 0.00 | 0.66 | 0.00 | 95 | 1013.1 |
| 20260510043017 | 52 | 38 | 0.0 | 0.0 | 0.00 | 0.66 | 0.00 | 95 | 1012.9 |
| 20260510041505 | 52 | 37 | 0.0 | 0.0 | 0.00 | 0.66 | 0.00 | 95 | 1012.9 |
| 20260510040005 | 52 | 38 | 0.0 | 0.0 | 0.00 | 0.66 | 0.66 | 95 | 1012.8 |
| 20260510034502 | 52 | 38 | 0.0 | 0.0 | 0.00 | 0.66 | 0.66 | 95 | 1012.7 |
| 20260510033002 | 52 | 34 | 0.0 | 0.0 | 0.00 | 0.66 | 0.66 | 95 | 1012.7 |
| 20260510031502 | 52 | 34 | 0.0 | 0.0 | 0.00 | 0.66 | 0.66 | 95 | 1013.0 |
| 20260510030045 | 52 | 34 | 0.0 | 0.0 | 0.00 | 0.66 | 0.66 | 95 | 1013.0 |
| 20260510024603 | 52 | 71 | 0.0 | 0.0 | 0.00 | 0.66 | 0.66 | 95 | 1012.8 |
| 20260510023040 | 51 | 146 | 0.0 | 1.0 | 0.00 | 0.66 | 0.66 | 95 | 1012.8 |
| 20260510021541 | 51 | 150 | 0.0 | 0.0 | 0.00 | 0.66 | 0.66 | 95 | 1012.7 |
| 20260510020022 | 51 | 150 | 0.0 | 0.0 | 0.00 | 0.66 | 0.66 | 95 | 1012.8 |
| 20260510014521 | 52 | 150 | 0.0 | 0.0 | 0.00 | 0.66 | 0.66 | 94 | 1012.8 |
| 20260510013003 | 52 | 150 | 0.0 | 0.0 | 0.00 | 0.66 | 0.66 | 94 | 1012.7 |
| 20260510011505 | 52 | 150 | 0.0 | 0.0 | 0.00 | 0.66 | 0.66 | 94 | 1012.8 |
| 20260510010044 | 52 | 74 | 0.0 | 1.0 | 0.00 | 0.66 | 0.66 | 94 | 1012.7 |
| 20260510004548 | 52 | 347 | 0.0 | 1.0 | 0.00 | 0.66 | 0.66 | 94 | 1012.7 |
| 20260510003028 | 52 | 121 | 0.0 | 0.0 | 0.01 | 0.66 | 0.66 | 94 | 1012.5 |
| 20260510001528 | 53 | 131 | 0.0 | 1.0 | 0.02 | 0.66 | 0.66 | 94 | 1012.2 |
| 20260510000012 | 53 | 101 | 0.0 | 2.0 | 0.08 | 0.66 | 0.66 | 94 | 1012.1 |
| 20260509234509 | 53 | 148 | 0.0 | 2.0 | 0.21 | 0.66 | 0.66 | 94 | 1012.3 |